Location: *
(37.5724°S, 58.0067°E)
Time: 14:44:07
(UTC+00:00)

Lacrosse 5 - Pass Details

Date: 17 January 2021
Orbit: 715 x 724 km, 57.0° (Epoch: 03 March)

Event Time Altitude Azimuth Distance (km) Brightness Sun altitude
Exits shadow 22:28:41 12° 246° (WSW) 2,091 4.1 -24.3°
Maximum altitude 22:31:35 18° 209° (SSW) 1,748 4.1 -24.0°
Drops below altitude 10° 22:35:07 10° 165° (SSE) 2,244 5.4 -23.6°
Sets 22:38:17 0° 146° (SSE) 3,170 6.7 -23.2°
